Forestdale, MA

3:20 PM EDT on September 28, 2016 (GMT -0400)
Cape Cod Coast Guard Air Station

Weather History for KFMH - November, 2012

Change the Weather History Date:

Thursday, November 8, 2012

  Actual Average Record
Temperature  
Mean Temperature 46 °F -  
Max Temperature 56 °F 49 °F 68 °F (2011)
Min Temperature 37 °F 34 °F 24 °F (1999)
Degree Days  
Heating Degree Days 18    
Moisture  
Dew Point 42 °F    
Average Humidity 94    
Maximum Humidity 100    
Minimum Humidity 81    
Precipitation  
Precipitation 0.59 in - - ()
Sea Level Pressure  
Sea Level Pressure 29.49 in    
Wind  
Wind Speed 26 mph (North)    
Max Wind Speed 45 mph    
Max Gust Speed 60 mph    
Visibility 2 miles    
Events Fog , Rain    
Averages and records for this station are not official NWS values.
T = Trace of Precipitation, MM = Missing Value Source: NWS Daily Summary

Daily Weather History Graph

Daily Weather History Graph

Search for Another Location

Airport or City:

Trip Planner

Search our weather history database for the weather conditions in past years. The results will help you decide how hot, cold, wet, or windy it might be!

Date:

Astronomy

Nov. 08, 2012 Rise Set
Actual Time 6:23 AM EST 4:28 PM EST
Civil Twilight 5:53 AM EST 4:57 PM EST
Nautical Twilight 5:20 AM EST 5:30 PM EST
Astronomical Twilight 4:47 AM EST 6:03 PM EST
Moon 12:10 AM EST (11/8) 1:11 PM EST (11/8)
Length of Visible Light 11h 03m
Length of Day
10h 04m
Waning Crescent, 33% of the Moon is Illuminated
Nov 8
Waning Crescent
Nov 13
New
Nov 20
First Quarter
Nov 28
Full
Dec 6
Last Quarter

Hourly Weather History & Observations

Time (EST) Temp. Windchill Dew Point Humidity Pressure Visibility Wind Dir Wind Speed Gust Speed Precip Events Conditions
12:15 AM 41.0 °F 30.7 °F 39.2 °F 93% 29.56 in 2.5 mi NE 25.3 mph 49.5 mph 0.08 in   Partly Cloudy
12:35 AM 41.0 °F 29.5 °F 39.2 °F 93% 29.54 in 2.0 mi NE 32.2 mph 49.5 mph 0.18 in   Scattered Clouds
12:55 AM 41.0 °F 29.7 °F 39.2 °F 93% 29.53 in 3.0 mi NNE 31.1 mph 57.5 mph 0.33 in   Scattered Clouds
1:15 AM 41.0 °F 29.8 °F 39.2 °F 93% 29.53 in 1.8 mi NNE 29.9 mph 44.9 mph 0.09 in   Scattered Clouds
1:35 AM 41.0 °F 30.5 °F 39.2 °F 93% 29.52 in 1.8 mi NNE 26.5 mph 46.0 mph 0.27 in   Scattered Clouds
1:55 AM 41.0 °F 29.5 °F 39.2 °F 93% 29.51 in 1.2 mi NNE 32.2 mph 51.8 mph 0.49 in   Scattered Clouds
2:15 AM 41.0 °F 30.9 °F 41.0 °F 100% 29.51 in 2.0 mi NNE 24.2 mph 51.8 mph 0.17 in   Scattered Clouds
2:35 AM 41.0 °F 30.2 °F 41.0 °F 100% 29.49 in 2.0 mi NNE 27.6 mph 48.3 mph 0.41 in   Scattered Clouds
2:55 AM 42.8 °F 31.9 °F 41.0 °F 93% 29.49 in 1.5 mi NNE 32.2 mph 50.6 mph 0.56 in   Scattered Clouds
3:15 AM 42.8 °F 31.6 °F 41.0 °F 93% 29.48 in 2.0 mi NNE 34.5 mph 47.2 mph 0.12 in   Scattered Clouds
3:35 AM 42.8 °F 32.7 °F 41.0 °F 93% 29.47 in 2.5 mi NNE 27.6 mph 42.6 mph 0.33 in   Partly Cloudy
3:55 AM 42.8 °F 32.7 °F 41.0 °F 93% 29.45 in 2.0 mi NNE 27.6 mph 50.6 mph 0.52 in   Scattered Clouds
4:15 AM 42.8 °F 32.1 °F 41.0 °F 93% 29.45 in 3.0 mi NNE 31.1 mph 56.4 mph 0.06 in   Scattered Clouds
4:35 AM 42.8 °F 31.8 °F 41.0 °F 93% 29.44 in 2.5 mi NNE 33.4 mph 59.8 mph 0.19 in   Scattered Clouds
4:55 AM 44.6 °F 35.1 °F 41.0 °F 87% 29.44 in 2.0 mi NNE 27.6 mph 44.9 mph 0.43 in   Scattered Clouds
5:15 AM 44.6 °F 35.1 °F 41.0 °F 87% 29.44 in 2.5 mi NNE 27.6 mph 50.6 mph 0.06 in   Partly Cloudy
5:35 AM 44.6 °F 35.9 °F 41.0 °F 87% 29.44 in 3.0 mi NNE 23.0 mph 47.2 mph 0.23 in   Partly Cloudy
5:55 AM 44.6 °F 34.9 °F 41.0 °F 87% 29.43 in 3.0 mi NNE 28.8 mph 51.8 mph 0.46 in   Partly Cloudy
6:15 AM 44.6 °F 35.3 °F 42.8 °F 93% 29.43 in 3.0 mi NNE 26.5 mph 44.9 mph 0.10 in   Partly Cloudy
6:35 AM 44.6 °F 35.5 °F 42.8 °F 93% 29.43 in 2.5 mi NNE 25.3 mph 43.7 mph 0.33 in Rain Heavy Rain
6:55 AM 44.6 °F 35.9 °F 42.8 °F 93% 29.43 in 2.0 mi NNE 23.0 mph 44.9 mph 0.66 in   Scattered Clouds
7:15 AM 44.6 °F 34.9 °F 42.8 °F 93% 29.42 in 1.2 mi North 28.8 mph 48.3 mph 0.26 in   Unknown
7:35 AM 44.6 °F 34.9 °F 42.8 °F 93% 29.41 in 0.8 mi North 28.8 mph 43.7 mph 0.69 in   Unknown
7:55 AM 44.6 °F 35.5 °F 42.8 °F 93% 29.41 in 1.0 mi North 25.3 mph 46.0 mph 0.91 in   Scattered Clouds
8:15 AM 44.6 °F 35.9 °F 42.8 °F 93% 29.41 in 0.5 mi North 23.0 mph 40.3 mph 0.16 in   Unknown
8:35 AM 44.6 °F 35.9 °F 44.6 °F 100% 29.41 in 1.0 mi North 23.0 mph 43.7 mph 0.35 in   Scattered Clouds
8:55 AM 44.6 °F 33.9 °F 44.6 °F 100% 29.39 in 0.8 mi North 35.7 mph 49.5 mph 0.56 in   Unknown
9:15 AM 44.6 °F 34.9 °F 44.6 °F 100% 29.39 in 0.8 mi North 28.8 mph 46.0 mph 0.12 in   Mostly Cloudy
9:35 AM 44.6 °F 35.5 °F 44.6 °F 100% 29.39 in 0.8 mi North 25.3 mph 42.6 mph 0.12 in   Mist
9:55 AM 46.4 °F 37.5 °F 44.6 °F 93% 29.39 in 0.5 mi NNE 27.6 mph 43.7 mph 0.12 in Fog Fog
10:15 AM 46.4 °F 37.9 °F 44.6 °F 93% 29.39 in 0.5 mi North 25.3 mph 49.5 mph N/A Fog Fog
10:35 AM 46.4 °F 38.5 °F 44.6 °F 93% 29.39 in 1.0 mi North 21.9 mph 46.0 mph N/A   Mostly Cloudy
10:55 AM 46.4 °F 37.5 °F 44.6 °F 93% 29.39 in 1.0 mi North 27.6 mph 44.9 mph N/A   Mostly Cloudy
11:15 AM 44.6 °F 35.9 °F 44.6 °F 100% 29.38 in 0.8 mi North 23.0 mph 47.2 mph N/A   Mostly Cloudy
11:35 AM 46.4 °F 38.5 °F 44.6 °F 93% 29.38 in 0.8 mi North 21.9 mph 47.2 mph N/A   Mostly Cloudy
11:55 AM 44.6 °F 35.5 °F 44.6 °F 100% 29.39 in 0.8 mi North 25.3 mph 48.3 mph N/A   Mist
12:15 PM 44.6 °F 35.3 °F 44.6 °F 100% 29.38 in 0.8 mi North 26.5 mph 43.7 mph N/A   Mist
12:35 PM 44.6 °F 34.6 °F 44.6 °F 100% 29.40 in 0.8 mi North 31.1 mph 49.5 mph 0.07 in   Mostly Cloudy
12:55 PM 44.6 °F 35.1 °F 42.8 °F 93% 29.40 in 1.0 mi North 27.6 mph 43.7 mph 0.26 in   Mostly Cloudy
1:15 PM 44.6 °F 34.9 °F 42.8 °F 93% 29.40 in 1.0 mi North 28.8 mph 46.0 mph 0.16 in   Mostly Cloudy
1:35 PM 42.8 °F 31.9 °F 41.0 °F 93% 29.42 in 1.2 mi North 32.2 mph 50.6 mph 0.36 in   Mist
1:55 PM 42.8 °F 32.3 °F 41.0 °F 93% 29.43 in 1.2 mi North 29.9 mph 47.2 mph 0.53 in   Mist
2:15 PM 42.8 °F 32.1 °F 41.0 °F 93% 29.44 in 1.0 mi North 31.1 mph 43.7 mph 0.08 in   Mostly Cloudy
2:35 PM 42.8 °F 34.3 °F 41.0 °F 93% 29.45 in 1.2 mi North 19.6 mph 42.6 mph 0.25 in   Scattered Clouds
2:55 PM 42.8 °F 33.5 °F 41.0 °F 93% 29.46 in 1.0 mi North 23.0 mph 48.3 mph 0.42 in   Mostly Cloudy
3:15 PM 42.8 °F 32.9 °F 41.0 °F 93% 29.48 in 0.8 mi North 26.5 mph 47.2 mph 0.10 in   Mostly Cloudy
3:35 PM 42.8 °F 33.8 °F 41.0 °F 93% 29.48 in 1.0 mi North 21.9 mph 35.7 mph 0.23 in   Mostly Cloudy
3:55 PM 42.8 °F 33.5 °F 41.0 °F 93% 29.49 in 1.0 mi North 23.0 mph 35.7 mph 0.32 in   Mostly Cloudy
4:15 PM 42.8 °F 33.5 °F 41.0 °F 93% 29.51 in 1.2 mi North 23.0 mph 35.7 mph 0.05 in   Scattered Clouds
4:35 PM 42.8 °F 33.1 °F 41.0 °F 93% 29.52 in 3.0 mi North 25.3 mph 39.1 mph 0.08 in   Mostly Cloudy
4:55 PM 42.8 °F 34.5 °F 41.0 °F 93% 29.53 in 2.0 mi North 18.4 mph 41.4 mph 0.17 in   Mostly Cloudy
5:15 PM 42.8 °F 33.8 °F 41.0 °F 93% 29.54 in 2.5 mi North 21.9 mph 36.8 mph 0.03 in   Mostly Cloudy
5:35 PM 41.0 °F 32.5 °F 41.0 °F 100% 29.56 in 2.5 mi North 17.3 mph 36.8 mph 0.06 in   Mostly Cloudy
5:55 PM 42.8 °F 33.3 °F 41.0 °F 93% 29.57 in 1.5 mi North 24.2 mph 36.8 mph 0.13 in   Mostly Cloudy
6:15 PM 41.0 °F 30.7 °F 41.0 °F 100% 29.58 in 1.8 mi North 25.3 mph 40.3 mph 0.05 in   Mostly Cloudy
6:35 PM 41.0 °F 33.9 °F 41.0 °F 100% 29.59 in 1.8 mi North 12.7 mph 41.4 mph 0.13 in   Mostly Cloudy
6:55 PM 41.0 °F 31.9 °F 41.0 °F 100% 29.60 in 1.8 mi NNW 19.6 mph 26.5 mph 0.17 in   Mostly Cloudy
7:15 PM 41.0 °F 32.2 °F 39.2 °F 93% 29.61 in 1.5 mi NNW 18.4 mph 29.9 mph 0.05 in   Mostly Cloudy
7:35 PM 41.0 °F 31.9 °F 39.2 °F 93% 29.62 in 1.5 mi NNW 19.6 mph 31.1 mph 0.10 in   Mostly Cloudy
7:55 PM 41.0 °F 32.2 °F 39.2 °F 93% 29.62 in 2.0 mi NNW 18.4 mph 31.1 mph 0.14 in   Mostly Cloudy
8:15 PM 41.0 °F 32.5 °F 39.2 °F 93% 29.62 in 3.0 mi NNW 17.3 mph 31.1 mph 0.01 in Rain Light Rain
8:35 PM 41.0 °F 33.1 °F 39.2 °F 93% 29.63 in 3.0 mi NNW 15.0 mph 27.6 mph 0.02 in   Mostly Cloudy
8:55 PM 41.0 °F 32.2 °F 39.2 °F 93% 29.63 in 3.0 mi North 18.4 mph 34.5 mph 0.04 in Rain Light Rain
9:15 PM 41.0 °F 33.1 °F 39.2 °F 93% 29.64 in 4.0 mi NNW 15.0 mph 23.0 mph N/A Rain Light Rain
9:35 PM 39.2 °F 30.5 °F 39.2 °F 100% 29.65 in 3.0 mi NNW 16.1 mph 26.5 mph N/A Rain Light Rain
9:55 PM 39.2 °F 29.6 °F 37.4 °F 93% 29.66 in 2.5 mi NNW 19.6 mph 26.5 mph 0.01 in   Overcast
10:15 PM 39.2 °F 31.2 °F 37.4 °F 93% 29.66 in 3.0 mi NNW 13.8 mph 27.6 mph N/A   Overcast
10:35 PM 39.2 °F 29.8 °F 37.4 °F 93% 29.67 in 4.0 mi NNW 18.4 mph 26.5 mph N/A Rain Light Rain
10:55 PM 39.2 °F 30.5 °F 37.4 °F 93% 29.67 in 5.0 mi NNW 16.1 mph 23.0 mph N/A   Overcast
11:15 PM 37.4 °F 28.2 °F 37.4 °F 100% 29.68 in 3.0 mi NNW 16.1 mph 25.3 mph N/A   Overcast
11:55 PM 37.4 °F 28.9 °F 37.4 °F 100% 29.69 in 5.0 mi NNW 13.8 mph 26.5 mph N/A   Overcast